[[{"header":{"parameterUnit":"m.s-1","parameterCategory":1,"la1":30.2991,"la2":30.254,"lo1":-89.0895,"lo2":-89.0444,"dy":0.0017,"dx":0.0017,"nx":28,"ny":28,"refTime":"2024-04-29T03:00:00:Z","depth":0,"parameterNumber":2,"parameterNumberName":"U-component_of_WINDS"},"data":[0,0,0,0,0,0,0,0,0,0,0,0,0,0,0,0,0,0,0,0,0,0,0,0,0,0,0,0,0,0,0,0,0,0,0,0,0,0,0,0,0,0,0,0,0,0,0,0,0,0,0,0,0,0,0,0,0,0,-7.2878,-7.2879,0,-7.2949,-7.295,-7.2951,-7.2878,-7.2875,-7.2873,-7.287,-7.2936,-7.294,-7.2944,0,0,0,0,0,0,0,0,0,0,0,0,0,-7.2675,-7.2679,-7.2878,-7.2879,-7.288,-7.2949,-7.295,-7.2951,-7.2879,-7.2875,-7.2872,-7.2869,-7.2934,-7.2939,-7.2945,0,0,0,0,0,0,0,0,0,0,0,0,0,-7.2756,-7.268,-7.2878,-7.2852,-7.2851,-7.2949,-7.295,-7.2951,-7.2879,-7.2875,-7.2871,-7.2867,-7.2933,-7.2939,-7.2945,-7.307,0,0,-7.2965,-7.2968,0,0,0,0,0,0,0,0,-7.2751,-7.2763,-7.2855,-7.2854,-7.2853,-7.2901,-7.2902,-7.2991,-7.2881,-7.2868,-7.287,-7.2865,-7.2927,-7.2934,-7.2956,-7.3073,-7.3076,-7.2966,-7.297,-7.2973,-7.2974,0,0,0,0,0,0,0,-7.2746,-7.276,-7.2906,-7.2857,-7.2855,-7.2836,-7.2843,-7.2919,-7.292,-7.2869,-7.2864,-7.2874,-7.2925,-7.295,-7.2957,-7.3077,-7.2966,-7.2971,-7.2976,-7.2978,-7.3298,-7.3303,0,0,0,0,0,0,-7.2744,-7.2756,-7.2904,-7.2908,-7.2791,-7.2843,-7.285,-7.2889,-7.2919,-7.292,-7.2877,-7.287,-7.2941,-7.2949,-7.2959,-7.3105,-7.2973,-7.2979,-7.2982,-7.3294,-7.3299,-7.3304,0,0,0,0,0,0,-7.274,-7.2758,-7.2901,-7.2831,-7.2847,-7.2851,-7.2895,-7.2893,-7.2917,-7.2926,-7.2925,-7.2902,-7.2938,-7.295,-7.3043,-7.3106,-7.2982,-7.2988,-7.3288,-7.3295,-7.3302,-7.3398,0,0,0,0,0,0,-7.2734,-7.2757,-7.2805,-7.2832,-7.2851,-7.2985,-7.2899,-7.2897,-7.293,-7.2921,-7.2949,-7.2949,-7.2935,-7.3034,-7.305,-7.3113,-7.2993,-7.3282,-7.3291,-7.33,-7.3389,-7.3408,-7.3423,0,0,0,0,0,-7.2727,-7.2828,-7.2808,-7.2826,-7.2912,-7.2989,-7.3,-7.2984,-7.2935,-7.2982,-7.2988,-7.2948,-7.3098,-7.3044,-7.3061,-7.3127,-7.3278,-7.3289,-7.3299,-7.3382,-7.3404,-7.3423,0,0,0,0,0,0,-7.2804,-7.2831,-7.2809,-7.2922,-7.2954,-7.2977,-7.3035,-7.3008,-7.3053,-7.3042,-7.3019,-7.3026,-7.3124,-7.3136,-7.3075,-7.3249,-7.318,-7.3194,-7.3237,-7.3258,-7.3275,-7.3267,-7.2998,0,0,0,0,0,-7.2835,-7.2898,-7.2917,-7.3014,-7.3032,-7.3032,-7.3065,-7.305,-7.3082,-7.3094,-7.3106,-7.3137,-7.319,-7.3226,-7.3276,-7.3393,-7.3396,-7.3447,-7.3464,-7.3478,-7.3489,-7.355,-7.3572,-7.3338,-7.3338,-7.3338,0,0,-7.2897,-7.292,-7.296,-7.303,-7.3054,-7.3116,-7.3043,-7.3113,-7.3158,-7.3104,-7.3192,-7.3203,-7.3235,-7.3341,-7.3388,-7.3353,-7.3555,-7.3491,-7.3502,-7.3505,-7.3563,-7.3585,-7.3604,-7.3345,-7.3344,-7.3343,0,0,-7.3043,-7.3068,-7.3151,-7.3177,-7.3215,-7.3215,-7.3235,-7.3264,-7.3269,-7.3359,-7.3319,-7.3373,-7.3466,-7.3491,-7.3515,-7.3675,-7.3639,-7.3692,-7.3778,-7.3838,-7.3856,-7.3872,-7.3926,-7.3946,-7.3704,-7.3704,-7.3705,0,-7.3114,-7.321,-7.3197,-7.327,-7.3301,-7.3259,-7.3342,-7.3368,-7.3419,-7.344,-7.3402,-7.352,-7.3539,-7.3648,-7.3688,-7.371,-7.3731,-7.3686,-7.3855,-7.3871,-7.3886,-7.3937,-7.3957,-7.371,-7.371,-7.3709,-7.3708,0,-7.3295,-7.3362,-7.3425,-7.3478,-7.3517,-7.3595,-7.3592,-7.3633,-7.3617,-7.362,-7.3712,-7.3734,-7.3788,-7.3814,-7.3798,-7.3922,-7.3899,-7.3859,-7.3788,-7.3914,-7.3961,-7.3981,-7.3719,-7.3717,-7.3715,-7.3713,0,0,-7.3484,-7.3534,-7.3556,-7.358,-7.362,-7.367,-7.3747,-7.3802,-7.3836,-7.3875,-7.3936,-7.4018,-7.3982,-7.401,-7.3997,-7.4051,-7.4172,-7.4004,-7.4004,-7.4031,-7.4307,-7.4333,-7.4356,-7.4152,-7.4155,-7.4158,-7.4303,0,-7.3628,-7.3762,-7.3754,-7.3878,-7.3939,-7.3902,-7.3969,-7.4,-7.4006,-7.4057,-7.4064,-7.4121,-7.4071,-7.4088,-7.414,-7.4147,-7.4227,-7.4137,-7.4204,-7.4207,-7.4192,-7.4381,-7.4409,-7.4544,-7.4322,-7.4325,-7.4327,0,-7.3811,-7.3859,-7.399,-7.4023,-7.4048,-7.4108,-7.4158,-7.4209,-7.4243,-7.4244,-7.4278,-7.4257,-7.4332,-7.4265,-7.4367,-7.4306,-7.4334,-7.4342,-7.4347,-7.4348,-7.4271,-7.4383,-7.4588,-7.4606,-7.4357,-7.4355,-7.4352,0,-7.3932,-7.4029,-7.412,-7.4142,-7.4183,-7.4226,-7.4244,-7.4276,-7.431,-7.4354,-7.4375,-7.4427,-7.4454,-7.4495,-7.4487,-7.4439,-7.459,-7.4523,-7.459,-7.459,-7.4618,-7.4616,-7.4825,-7.4646,-7.4645,-7.4645,-7.4645,0,-7.409,-7.417,-7.4175,-7.423,-7.4319,-7.4311,-7.4399,-7.4412,-7.4441,-7.4497,-7.447,-7.4522,-7.4513,-7.4565,-7.456,-7.4644,-7.4657,-7.4658,-7.4655,-7.4658,-7.4657,-7.4671,-7.466,-7.465,-7.4649,-7.4648,-7.4647,0,-7.4236,-7.4243,-7.4339,-7.4372,-7.4383,-7.4447,-7.4474,-7.4525,-7.4532,-7.4603,-7.4619,-7.4628,-7.4689,-7.4688,-7.4756,-7.4753,-7.4854,-7.4843,-7.4843,-7.4838,-7.4905,-7.4897,-7.5126,-7.5155,-7.4961,-7.4963,-7.4965,0,-7.4334,-7.4396,-7.4437,-7.4474,-7.4496,-7.4556,-7.4591,-7.4586,-7.4624,-7.467,-7.4716,-7.4775,-7.482,-7.4919,-7.493,-7.4982,-7.4968,-7.5046,-7.4975,-7.4976,-7.4964,-7.4959,-7.4964,-7.5057,-7.506,-7.5061,-7.5063,0,-7.4505,-7.4506,-7.456,-7.4616,-7.466,-7.4703,-7.4742,-7.4774,-7.4773,-7.4817,-7.488,-7.4916,-7.4988,-7.5045,-7.5096,-7.5113,-7.5087,-7.5086,-7.5104,-7.5104,-7.51,-7.5099,-7.4875,-7.5079,-7.5077,-7.5076,-7.5075,-7.5075,-7.4627,-7.468,-7.4718,-7.4779,-7.4809,-7.4847,-7.4897,-7.4912,-7.4965,-7.5024,-7.5019,-7.5088,-7.5122,-7.5189,-7.5211,-7.5264,-7.5236,-7.5263,-7.5268,-7.5274,-7.5279,-7.5097,-7.5274,-7.5273,-7.5273,-7.5272,-7.5272,0,-7.4793,-7.4817,-7.4874,-7.4932,-7.4979,-7.4957,-7.5,-7.504,-7.5102,-7.5138,-7.5185,-7.5258,-7.5314,-7.5332,-7.5387,-7.5426,-7.5415,-7.544,-7.5434,-7.5438,-7.5303,-7.528,-7.5447,-7.5447,-7.5447,-7.5447,-7.5447,-7.5447,-7.4885,-7.4973,-7.4979,-7.5082,-7.5105,-7.5174,-7.5201,-7.5235,-7.5264,-7.5347,-7.5395,-7.5408,-7.5436,-7.5493,-7.5543,-7.5547,-7.5566,-7.5595,-7.5593,-7.5465,-7.5447,-7.543,-7.5409,-7.56,-7.56,-7.5723,-7.5724,-7.5725]},{"header":{"parameterUnit":"m.s-1","parameterCategory":1,"la1":30.2991,"la2":30.254,"lo1":-89.0895,"lo2":-89.0444,"dy":0.0017,"dx":0.0017,"nx":28,"ny":28,"refTime":"2024-04-29T03:00:00:Z","depth":0,"parameterNumber":3,"parameterNumberName":"V-component_of_WINDS"},"data":[0,0,0,0,0,0,0,0,0,0,0,0,0,0,0,0,0,0,0,0,0,0,0,0,0,0,0,0,0,0,0,0,0,0,0,0,0,0,0,0,0,0,0,0,0,0,0,0,0,0,0,0,0,0,0,0,0,0,3.4819,3.4819,0,3.486,3.486,3.4861,3.4845,3.4844,3.4843,3.4842,3.488,3.4882,3.4884,0,0,0,0,0,0,0,0,0,0,0,0,0,3.4725,3.4727,3.4819,3.4819,3.482,3.486,3.486,3.4861,3.4845,3.4844,3.4843,3.4842,3.488,3.4882,3.4884,0,0,0,0,0,0,0,0,0,0,0,0,0,3.4766,3.4727,3.4819,3.4817,3.4817,3.486,3.486,3.4861,3.4845,3.4844,3.4842,3.4841,3.4879,3.4882,3.4884,3.493,0,0,3.4893,3.4894,0,0,0,0,0,0,0,0,3.4763,3.4769,3.4817,3.4817,3.4818,3.4846,3.4841,3.4884,3.4846,3.4834,3.4842,3.484,3.487,3.4873,3.4884,3.4932,3.4933,3.4893,3.4895,3.4896,3.4897,0,0,0,0,0,0,0,3.4761,3.4767,3.4835,3.4817,3.4818,3.4813,3.4818,3.4849,3.4859,3.4835,3.4834,3.484,3.487,3.4881,3.4885,3.4934,3.4893,3.4896,3.4897,3.4899,3.5023,3.5024,0,0,0,0,0,0,3.4758,3.4765,3.4834,3.4836,3.4787,3.4816,3.4821,3.4838,3.4859,3.4861,3.4841,3.4839,3.4877,3.4881,3.4886,3.4942,3.4896,3.4899,3.49,3.5021,3.5023,3.5025,0,0,0,0,0,0,3.4756,3.4764,3.4832,3.48,3.4809,3.4819,3.4839,3.484,3.4851,3.4863,3.4864,3.4851,3.4876,3.4882,3.492,3.4943,3.49,3.4903,3.5019,3.5022,3.5024,3.5053,0,0,0,0,0,0,3.4754,3.4764,3.4782,3.4801,3.4811,3.4866,3.484,3.4841,3.4857,3.4854,3.4873,3.4875,3.4875,3.4916,3.4923,3.4946,3.4905,3.5017,3.502,3.5023,3.505,3.5056,3.5061,0,0,0,0,0,3.475,3.4787,3.4783,3.4791,3.4833,3.4867,3.4873,3.4874,3.4858,3.4876,3.4884,3.4874,3.4939,3.492,3.4927,3.4952,3.5016,3.502,3.5023,3.5047,3.5055,3.5061,0,0,0,0,0,0,3.4768,3.4789,3.4785,3.4829,3.4847,3.4865,3.4887,3.4881,3.4903,3.49,3.4899,3.4903,3.4943,3.4951,3.4929,3.4998,3.4975,3.498,3.4991,3.4998,3.5004,3.5001,3.4907,0,0,0,0,0,3.4777,3.4804,3.4821,3.4858,3.4868,3.4876,3.4891,3.4891,3.4908,3.4915,3.4926,3.4943,3.4967,3.4983,3.5006,3.5051,3.5055,3.5072,3.5078,3.5082,3.5087,3.5113,3.512,3.5037,3.5037,3.5037,0,0,3.4796,3.4811,3.4828,3.4863,3.4876,3.4904,3.4882,3.4912,3.4932,3.4919,3.4957,3.4965,3.4984,3.5026,3.5045,3.5034,3.5111,3.5087,3.509,3.5092,3.5117,3.5125,3.5132,3.5039,3.5039,3.5038,0,0,3.4845,3.4859,3.4893,3.4908,3.4929,3.4935,3.4943,3.4962,3.4968,3.5006,3.4997,3.5021,3.5063,3.5077,3.509,3.5146,3.5138,3.5154,3.5183,3.5208,3.5215,3.5221,3.5242,3.5249,3.5158,3.5158,3.5158,0,3.4866,3.4908,3.491,3.4942,3.4957,3.4949,3.4983,3.4996,3.5024,3.5035,3.5022,3.5076,3.5088,3.5134,3.5148,3.5158,3.5168,3.5151,3.5214,3.522,3.5225,3.5245,3.5253,3.516,3.516,3.516,3.5159,0,3.4933,3.4962,3.4986,3.5016,3.5034,3.5066,3.5073,3.5091,3.509,3.5096,3.5135,3.515,3.5176,3.5187,3.5185,3.5233,3.5226,3.5214,3.5191,3.5235,3.5254,3.5261,3.5163,3.5162,3.5161,3.5161,0,0,3.4993,3.5025,3.5033,3.5047,3.5072,3.5094,3.5126,3.5154,3.517,3.5189,3.5216,3.5253,3.5242,3.5257,3.5256,3.5279,3.5324,3.5264,3.5264,3.5275,3.5379,3.5389,3.5398,3.5319,3.532,3.5321,3.5378,0,3.5044,3.5102,3.5106,3.5158,3.5186,3.5179,3.5207,3.5225,3.5233,3.5257,3.5264,3.5291,3.5275,3.5284,3.5305,3.5314,3.5345,3.531,3.5344,3.5345,3.534,3.5407,3.5417,3.547,3.5385,3.5386,3.5387,0,3.5112,3.5136,3.5192,3.5214,3.5226,3.5251,3.5277,3.53,3.5321,3.5324,3.5342,3.5339,3.5372,3.5348,3.5393,3.5369,3.5383,3.539,3.5392,3.5395,3.5369,3.5413,3.5486,3.5495,3.5399,3.5398,3.5397,0,3.5152,3.5198,3.5237,3.5249,3.5276,3.5294,3.5306,3.5325,3.5341,3.5364,3.5375,3.5401,3.5415,3.5435,3.5439,3.5421,3.5484,3.5461,3.5488,3.5488,3.5502,3.5501,3.5579,3.551,3.551,3.551,3.551,0,3.5209,3.5244,3.5256,3.528,3.5319,3.5323,3.5361,3.5371,3.5388,3.5414,3.5409,3.5433,3.5437,3.5462,3.5465,3.5503,3.5509,3.5513,3.5513,3.5514,3.5513,3.5523,3.552,3.5512,3.5512,3.5511,3.5511,0,3.526,3.5269,3.5313,3.5335,3.5342,3.5369,3.5388,3.5411,3.5419,3.5452,3.546,3.5471,3.5501,3.5507,3.5541,3.5543,3.5588,3.5585,3.5582,3.5582,3.561,3.5607,3.5697,3.5709,3.5632,3.5632,3.5633,0,3.5296,3.5323,3.5349,3.5367,3.538,3.5409,3.5427,3.5432,3.5451,3.5477,3.5497,3.5526,3.555,3.5597,3.5608,3.5634,3.5632,3.5662,3.5636,3.5636,3.5633,3.5632,3.5635,3.5667,3.5667,3.5668,3.5669,0,3.536,3.5364,3.5391,3.542,3.5442,3.5465,3.5486,3.5501,3.5509,3.553,3.5561,3.558,3.5616,3.5645,3.5672,3.5683,3.5677,3.5677,3.5685,3.5686,3.5683,3.5686,3.5596,3.5675,3.5674,3.5674,3.5673,3.5673,3.5405,3.543,3.5453,3.5483,3.55,3.5521,3.5544,3.5556,3.5582,3.5613,3.5614,3.5649,3.5669,3.5705,3.5718,3.5744,3.5734,3.5746,3.5749,3.5751,3.5755,3.5679,3.5748,3.5748,3.5748,3.5748,3.5748,0,3.547,3.5485,3.5513,3.5544,3.5568,3.5563,3.5586,3.5607,3.5637,3.5657,3.5682,3.5718,3.5746,3.576,3.5789,3.5807,3.5805,3.5814,3.5813,3.5816,3.5761,3.5752,3.5816,3.5816,3.5816,3.5816,3.5816,3.5816,3.5506,3.5548,3.5555,3.5604,3.5618,3.5653,3.5667,3.5686,3.5703,3.5744,3.5769,3.5778,3.5796,3.5826,3.5852,3.5855,3.5866,3.5877,3.5879,3.5827,3.582,3.5813,3.5805,3.5879,3.5879,3.5932,3.5932,3.5933]}]]